User: anonymous   Login
Location: Croydon
(51.3762°N, 0.0982°W)
Time: 08:00:02
(UTC+00:00)
Language:

SR - Orbit

View from above orbital plane
View from above orbital plane
View from above satellite
View from above satellite

Ground track
Ground track

The orbit data is extracted from the following two-line orbital elements,

1    46U 60007B   19316.87599364 -.00000011  00000-0  20902-4 0  9994
2    46  66.6899 274.4165 0217065 292.5668  65.2600 14.49257289107574
Epoch (UTC): 12 November 2019 21:01:25
Eccentricity: 0.0217065
inclination: 66.6899°
perigee height: 574 km
apogee height: 882 km
right ascension of ascending node: 274.4165°
argument of perigee: 292.5668°
revolutions per day: 14.49257289
mean anomaly at epoch: 65.2600°
orbit number at epoch: 10757

The dashed part of the orbit path shows where the satellite is in the earth's shadow,  

DLR